Regional Weather Roundup
Issued by NWS Cleveland, OH

Home | Current Version | Previous Version | Text Only | Print | Product List | Glossary Off
Versions: 1 2 3 4 5 6 7 8 9 10 11 12 13 14 15 16 17 18 19 20 21 22 23 24 25 26 27 28 29 30 31 32 33 34 35 36 37 38 39 40 41 42 43 44 45 46 47 48 49 50

000
ASUS41 KCLE 260902
RWRCLE
OHIO REGIONAL WEATHER ROUNDUP
NATIONAL WEATHER SERVICE CLEVELAND, OH
500 AM EDT SAT JUL 26 2014

NOTE: "FAIR" INDICATES FEW OR NO CLOUDS BELOW 12,000 FEET WITH NO
SIGNIFICANT WEATHER AND/OR OBSTRUCTIONS TO VISIBILITY.

OHZ001>008-015>018-024>027-034-035-043-044-261000-
   NORTHWEST OHIO

CITY           SKY/WX    TMP DP  RH WIND       PRES   REMARKS
DEFIANCE       CLEAR     60  56  86 CALM      29.94S
FINDLAY        CLEAR     60  56  86 S6        29.95S
TOLEDO EXPRESS CLEAR     59  56  89 CALM      29.94F
TOLEDO EXEC    CLEAR     61  56  83 S5        29.95F
LIMA           CLEAR     63  56  78 S6        29.96F
$$

OHZ009>014-019>023-028>033-038-089-261000-
   NORTHEAST OHIO

CITY           SKY/WX    TMP DP  RH WIND       PRES   REMARKS
CLE-HOPKINS    MOCLDY    62  59  90 S7        29.99S
CLE-LAKEFRONT  MOCLDY    65  60  84 SE10      29.95F
CUY CO. ARPT   NOT AVBL
LORAIN-ELYRIA  PTCLDY    65  60  84 CALM      29.97F
ASHTABULA      PTCLDY    61  56  83 S3        29.99F
AKRON-CANTON   CLOUDY    66  61  84 S3        30.00S
WOOSTER        MOCLDY    63  60  90 SE3       29.99F
MANSFIELD      CLEAR     61  58  90 S5        29.99F
YOUNGSTOWN     CLOUDY    60  55  83 SE9       29.99F
$$

OHZ042-051>053-060>062-070>072-077>081-261000-
  SOUTHWEST OHIO

CITY           SKY/WX    TMP DP  RH WIND       PRES   REMARKS
CINC-COVINGTON CLOUDY    68  61  78 SW5       29.98F
CINC-LUNKEN    CLOUDY    65  64  97 CALM      29.98F
HAMILTON       CLOUDY    66  64  93 CALM      29.98F
DAYTON         CLOUDY    68  61  78 SE5       29.98F
WRIGHT-PAT AFB CLOUDY    67  62  84 SE3       29.98S
DAYTON GENERAL CLOUDY    67  61  81 S5        29.97F
WILMINGTON     CLOUDY    65  60  84 S6        29.99F
$$

OHZ036-037-039>041-045>050-054>059-063>069-073>076-082>088-261000-
  CENTRAL AND SOUTHEAST OHIO

CITY           SKY/WX    TMP DP  RH WIND       PRES   REMARKS
COLUMBUS       MOCLDY    70  59  68 SE3       29.98F
OSU AIRPORT    PTCLDY    67  59  75 S3        29.98F
BOLTON FIELD   NOT AVBL
RICKENBACK AFB MOCLDY    65  58  78 S3        29.98S
NEWARK         CLOUDY    65  62  90 CALM      29.98F
MARION         PTCLDY    62  58  86 S7        29.97F
LANCASTER      CLOUDY    65  61  87 CALM      29.99F
ZANESVILLE     CLOUDY    65  61  87 SE3       30.00S
NEW PHILLY     CLOUDY    64  62  93 SE3       30.00F
$$



USA.gov is the U.S. government's official web portal to all federal, state and local government web resources and services.